| time (UTC) | temp F | wind direction | speed knots | gust knots | rain 1hr in | rain 24hr in | rain mn in | humidity % | barometer mb |
| 20260505140516 | 33 | 9 | 1.7 | 7.8 | 0.00 | 0.03 | 0.01 | 91 | 1016.6 |
| 20260505130104 | 38 | 9 | 0.0 | 3.5 | 0.00 | 0.03 | 0.01 | 91 | 1015.5 |
| 20260505125015 | 38 | 193 | 0.0 | 0.0 | 0.00 | 0.03 | 0.01 | 91 | 1015.4 |
| 20260505124541 | 38 | 193 | 0.0 | 0.0 | 0.00 | 0.03 | 0.01 | 91 | 1015.4 |
| 20260505124017 | 38 | 193 | 0.0 | 0.0 | 0.00 | 0.03 | 0.01 | 91 | 1015.4 |
| 20260505123514 | 38 | 193 | 0.0 | 0.0 | 0.00 | 0.03 | 0.01 | 91 | 1015.2 |
| 20260505123043 | 38 | 193 | 0.0 | 0.0 | 0.00 | 0.03 | 0.01 | 91 | 1015.2 |
| 20260505122514 | 38 | 193 | 0.0 | 0.0 | 0.00 | 0.03 | 0.01 | 91 | 1015.0 |
| 20260505122017 | 38 | 193 | 0.0 | 0.0 | 0.00 | 0.03 | 0.01 | 91 | 1014.9 |
| 20260505121543 | 38 | 193 | 0.0 | 0.0 | 0.00 | 0.03 | 0.01 | 91 | 1014.7 |
| 20260505121016 | 38 | 193 | 0.0 | 0.0 | 0.00 | 0.03 | 0.01 | 91 | 1014.7 |
| 20260505120516 | 38 | 193 | 0.0 | 0.0 | 0.00 | 0.03 | 0.01 | 91 | 1014.7 |
| 20260505120040 | 38 | 193 | 0.0 | 2.6 | 0.00 | 0.03 | 0.01 | 91 | 1014.7 |
| 20260505115517 | 38 | 193 | 0.0 | 2.6 | 0.00 | 0.03 | 0.01 | 92 | 1014.6 |
| 20260505115015 | 38 | 186 | 0.0 | 3.5 | 0.00 | 0.03 | 0.01 | 92 | 1014.7 |
| 20260505114540 | 38 | 199 | 0.9 | 3.5 | 0.00 | 0.03 | 0.01 | 92 | 1014.7 |
| 20260505114017 | 38 | 198 | 0.0 | 1.7 | 0.00 | 0.03 | 0.01 | 92 | 1014.6 |
| 20260505113514 | 38 | 172 | 0.0 | 2.6 | 0.00 | 0.03 | 0.01 | 92 | 1014.7 |
| 20260505113053 | 38 | 172 | 0.0 | 3.5 | 0.00 | 0.03 | 0.01 | 92 | 1014.6 |
| 20260505112519 | 38 | 227 | 0.0 | 3.5 | 0.00 | 0.03 | 0.01 | 92 | 1014.6 |
| 20260505112016 | 38 | 177 | 0.0 | 3.5 | 0.00 | 0.03 | 0.01 | 93 | 1014.5 |
| 20260505111548 | 38 | 174 | 0.9 | 5.2 | 0.00 | 0.03 | 0.01 | 93 | 1014.4 |
| 20260505111015 | 38 | 175 | 0.9 | 3.5 | 0.00 | 0.03 | 0.01 | 93 | 1014.6 |
| 20260505110514 | 38 | 188 | 0.0 | 4.3 | 0.00 | 0.03 | 0.01 | 93 | 1014.5 |
| 20260505102016 | 38 | 133 | 0.0 | 1.7 | 0.00 | 0.03 | 0.01 | 93 | 1014.3 |
| 20260505101553 | 38 | 133 | 0.0 | 1.7 | 0.00 | 0.03 | 0.01 | 93 | 1014.2 |
| 20260505101017 | 38 | 130 | 0.0 | 1.7 | 0.00 | 0.03 | 0.01 | 93 | 1014.4 |
| 20260505100519 | 38 | 130 | 0.0 | 1.7 | 0.00 | 0.03 | 0.01 | 93 | 1014.4 |
| 20260505100049 | 38 | 130 | 0.0 | 1.7 | 0.00 | 0.03 | 0.01 | 93 | 1014.4 |
| 20260505095516 | 38 | 130 | 0.0 | 0.0 | 0.00 | 0.03 | 0.01 | 93 | 1014.3 |
| 20260505095017 | 38 | 130 | 0.0 | 0.0 | 0.00 | 0.03 | 0.01 | 93 | 1014.3 |
| 20260505094542 | 38 | 130 | 0.0 | 0.0 | 0.00 | 0.03 | 0.01 | 93 | 1014.4 |
| 20260505094017 | 38 | 130 | 0.0 | 0.9 | 0.00 | 0.03 | 0.01 | 92 | 1014.4 |
| 20260505093516 | 38 | 130 | 0.0 | 1.7 | 0.00 | 0.03 | 0.01 | 92 | 1014.3 |
| 20260505093049 | 39 | 130 | 0.0 | 1.7 | 0.00 | 0.03 | 0.01 | 92 | 1014.0 |
| 20260505092520 | 39 | 130 | 0.0 | 2.6 | 0.00 | 0.03 | 0.01 | 93 | 1014.1 |
| 20260505092016 | 39 | 130 | 0.0 | 2.6 | 0.00 | 0.03 | 0.01 | 92 | 1014.2 |
| 20260505091544 | 39 | 130 | 0.0 | 3.5 | 0.00 | 0.03 | 0.01 | 92 | 1014.4 |
| 20260505091019 | 39 | 130 | 0.0 | 3.5 | 0.00 | 0.03 | 0.01 | 92 | 1014.2 |
| 20260505090516 | 40 | 132 | 0.9 | 2.6 | 0.00 | 0.03 | 0.01 | 92 | 1014.2 |
| 20260505090048 | 40 | 134 | 0.0 | 2.6 | 0.00 | 0.03 | 0.01 | 93 | 1014.3 |
| 20260505085516 | 40 | 144 | 0.0 | 2.6 | 0.00 | 0.03 | 0.01 | 93 | 1014.3 |
| 20260505085017 | 40 | 144 | 0.0 | 2.6 | 0.00 | 0.03 | 0.01 | 93 | 1014.5 |
| 20260505084545 | 40 | 50 | 0.0 | 1.7 | 0.00 | 0.03 | 0.01 | 93 | 1014.7 |
| 20260505084016 | 40 | 5 | 0.0 | 0.0 | 0.00 | 0.03 | 0.01 | 93 | 1014.9 |
| 20260505083516 | 40 | 5 | 0.0 | 0.0 | 0.00 | 0.03 | 0.01 | 93 | 1014.9 |
| 20260505083042 | 40 | 5 | 0.0 | 0.0 | 0.00 | 0.03 | 0.01 | 93 | 1015.0 |
| 20260505082515 | 40 | 5 | 0.0 | 0.0 | 0.00 | 0.03 | 0.01 | 93 | 1015.0 |
| 20260505082018 | 40 | 5 | 0.0 | 0.9 | 0.00 | 0.03 | 0.01 | 92 | 1015.2 |
| 20260505081608 | 40 | 5 | 0.0 | 0.9 | 0.00 | 0.03 | 0.01 | 92 | 1015.2 |
| 20260505081016 | 40 | 5 | 0.0 | 0.0 | 0.00 | 0.03 | 0.01 | 92 | 1015.0 |
| 20260505080521 | 40 | 5 | 0.0 | 0.0 | 0.00 | 0.03 | 0.01 | 92 | 1015.0 |
| 20260505080104 | 40 | 5 | 0.0 | 0.0 | 0.00 | 0.03 | 0.01 | 92 | 1015.2 |
| 20260505075515 | 40 | 5 | 0.0 | 0.0 | 0.00 | 0.03 | 0.01 | 92 | 1015.2 |
| 20260505075021 | 40 | 5 | 0.0 | 1.7 | 0.01 | 0.03 | 0.01 | 92 | 1015.3 |
| 20260505074546 | 40 | 5 | 0.0 | 1.7 | 0.01 | 0.03 | 0.01 | 92 | 1015.3 |
| 20260505074016 | 41 | 5 | 0.0 | 0.9 | 0.01 | 0.03 | 0.01 | 92 | 1015.3 |
| 20260505073516 | 41 | 5 | 0.0 | 2.6 | 0.01 | 0.03 | 0.01 | 92 | 1015.4 |
| 20260505073050 | 41 | 5 | 0.0 | 3.5 | 0.01 | 0.03 | 0.01 | 92 | 1015.3 |
| 20260505072516 | 41 | 61 | 0.0 | 3.5 | 0.01 | 0.03 | 0.01 | 92 | 1015.4 |
| 20260505072015 | 41 | 49 | 0.0 | 1.7 | 0.01 | 0.03 | 0.01 | 92 | 1015.4 |
| 20260505071551 | 41 | 45 | 0.0 | 4.3 | 0.01 | 0.03 | 0.01 | 92 | 1015.5 |
| 20260505071016 | 41 | 86 | 0.9 | 4.3 | 0.01 | 0.03 | 0.01 | 92 | 1015.4 |
| 20260505070517 | 41 | 269 | 0.0 | 0.9 | 0.01 | 0.03 | 0.01 | 92 | 1015.6 |
| 20260505070055 | 41 | 265 | 0.0 | 0.0 | 0.01 | 0.03 | 0.01 | 92 | 1015.7 |
| 20260505065516 | 41 | 265 | 0.0 | 0.0 | 0.01 | 0.03 | 0.01 | 92 | 1015.7 |
| 20260505065016 | 41 | 265 | 0.0 | 0.0 | 0.00 | 0.02 | 0.00 | 91 | 1015.7 |
| 20260505064549 | 41 | 265 | 0.0 | 0.0 | 0.01 | 0.02 | 0.00 | 91 | 1015.7 |
| 20260505064019 | 41 | 265 | 0.0 | 0.9 | 0.01 | 0.02 | 0.00 | 91 | 1015.6 |
| 20260505063516 | 41 | 265 | 0.0 | 2.6 | 0.01 | 0.02 | 0.00 | 91 | 1015.6 |
| 20260505063047 | 41 | 265 | 0.0 | 2.6 | 0.01 | 0.02 | 0.00 | 91 | 1015.6 |
| 20260505062516 | 41 | 48 | 0.0 | 1.7 | 0.01 | 0.02 | 0.00 | 90 | 1015.4 |
| 20260505062015 | 41 | 39 | 0.0 | 2.6 | 0.01 | 0.02 | 0.00 | 90 | 1015.4 |
| 20260505061544 | 41 | 60 | 0.9 | 3.5 | 0.01 | 0.02 | 0.00 | 90 | 1015.4 |
| 20260505061022 | 41 | 69 | 0.0 | 3.5 | 0.01 | 0.02 | 0.00 | 90 | 1015.5 |
| 20260505060515 | 41 | 13 | 0.0 | 0.9 | 0.01 | 0.02 | 0.00 | 89 | 1015.8 |
| 20260505060055 | 41 | 13 | 0.0 | 3.5 | 0.01 | 0.02 | 0.00 | 89 | 1015.9 |
| 20260505055516 | 41 | 13 | 0.0 | 3.5 | 0.01 | 0.02 | 0.02 | 88 | 1016.0 |
| 20260505055016 | 42 | 69 | 0.9 | 3.5 | 0.01 | 0.02 | 0.02 | 88 | 1015.9 |
| 20260505054553 | 42 | 53 | 0.0 | 2.6 | 0.00 | 0.01 | 0.01 | 87 | 1016.1 |
| 20260505054017 | 42 | 335 | 0.0 | 1.7 | 0.00 | 0.01 | 0.01 | 87 | 1016.1 |
| 20260505053515 | 42 | 331 | 0.0 | 2.6 | 0.00 | 0.01 | 0.01 | 86 | 1015.9 |
| 20260505053102 | 42 | 321 | 0.0 | 2.6 | 0.00 | 0.01 | 0.01 | 86 | 1016.0 |
| 20260505052519 | 42 | 10 | 0.0 | 3.5 | 0.00 | 0.01 | 0.01 | 86 | 1016.1 |
| 20260505052016 | 42 | 9 | 0.0 | 3.5 | 0.00 | 0.01 | 0.01 | 85 | 1016.1 |
| 20260505051548 | 42 | 5 | 0.0 | 2.6 | 0.00 | 0.01 | 0.01 | 85 | 1016.1 |
| 20260505051016 | 42 | 5 | 0.0 | 2.6 | 0.00 | 0.01 | 0.01 | 84 | 1016.1 |
| 20260505050518 | 42 | 5 | 0.0 | 1.7 | 0.00 | 0.01 | 0.01 | 84 | 1015.9 |
| 20260505041557 | 42 | 26 | 1.7 | 5.2 | 0.00 | 0.01 | 0.01 | 83 | 1015.2 |
| 20260505041017 | 42 | 40 | 0.9 | 5.2 | 0.00 | 0.01 | 0.01 | 83 | 1014.9 |
| 20260505040518 | 42 | 31 | 0.9 | 5.2 | 0.00 | 0.01 | 0.01 | 83 | 1015.0 |
| 20260505035517 | 42 | 35 | 0.0 | 5.2 | 0.00 | 0.01 | 0.01 | 84 | 1014.8 |
| 20260505035018 | 42 | 61 | 0.9 | 5.2 | 0.00 | 0.01 | 0.01 | 84 | 1014.7 |
| 20260505034550 | 42 | 5 | 0.9 | 4.3 | 0.00 | 0.01 | 0.01 | 84 | 1015.0 |
| 20260505034020 | 42 | 49 | 0.9 | 5.2 | 0.00 | 0.01 | 0.01 | 85 | 1015.2 |
| 20260505033517 | 42 | 42 | 0.0 | 5.2 | 0.00 | 0.01 | 0.01 | 85 | 1015.3 |
| 20260505033052 | 42 | 30 | 0.0 | 5.2 | 0.00 | 0.01 | 0.01 | 85 | 1015.2 |
| 20260505032517 | 42 | 19 | 0.9 | 7.0 | 0.00 | 0.01 | 0.01 | 85 | 1015.1 |
| 20260505032019 | 42 | 5 | 1.7 | 7.0 | 0.00 | 0.01 | 0.01 | 85 | 1014.9 |
| 20260505031600 | 42 | 327 | 0.9 | 7.0 | 0.00 | 0.01 | 0.01 | 85 | 1014.9 |
| 20260505031018 | 42 | 53 | 1.7 | 7.0 | 0.00 | 0.01 | 0.01 | 86 | 1015.0 |
| 20260505030519 | 42 | 349 | 0.9 | 4.3 | 0.00 | 0.01 | 0.01 | 86 | 1015.0 |
| 20260505030112 | 42 | 327 | 0.9 | 4.3 | 0.00 | 0.01 | 0.01 | 86 | 1015.0 |
| 20260505025517 | 42 | 37 | 0.0 | 2.6 | 0.00 | 0.01 | 0.01 | 87 | 1015.2 |
| 20260505025016 | 42 | 22 | 0.0 | 1.7 | 0.00 | 0.01 | 0.01 | 86 | 1015.3 |
| 20260505024602 | 42 | 24 | 0.0 | 0.9 | 0.00 | 0.01 | 0.01 | 86 | 1015.2 |
| 20260505024016 | 42 | 24 | 0.0 | 0.0 | 0.01 | 0.01 | 0.01 | 86 | 1015.1 |
| 20260505023517 | 42 | 25 | 0.0 | 0.0 | 0.01 | 0.01 | 0.01 | 85 | 1015.2 |
| 20260505023057 | 42 | 25 | 0.0 | 1.7 | 0.01 | 0.01 | 0.01 | 85 | 1015.0 |
| 20260505022518 | 42 | 25 | 0.0 | 3.5 | 0.01 | 0.01 | 0.01 | 85 | 1014.9 |
| 20260505022017 | 42 | 5 | 0.0 | 3.5 | 0.01 | 0.01 | 0.01 | 85 | 1014.8 |
| 20260505021559 | 43 | 74 | 0.0 | 2.6 | 0.01 | 0.01 | 0.01 | 84 | 1014.9 |
| 20260505021016 | 43 | 74 | 0.0 | 2.6 | 0.01 | 0.01 | 0.01 | 83 | 1015.0 |
| 20260505020516 | 43 | 63 | 0.0 | 0.9 | 0.01 | 0.01 | 0.01 | 82 | 1015.1 |
| 20260505020107 | 43 | 63 | 0.0 | 0.9 | 0.01 | 0.01 | 0.01 | 82 | 1015.0 |
| 20260505015519 | 44 | 63 | 0.0 | 0.9 | 0.01 | 0.01 | 0.01 | 80 | 1014.9 |
| 20260505015021 | 44 | 63 | 0.0 | 3.5 | 0.01 | 0.01 | 0.01 | 78 | 1014.9 |
| 20260505014555 | 45 | 63 | 0.9 | 5.2 | 0.01 | 0.01 | 0.01 | 76 | 1014.7 |
| 20260505014016 | 46 | 5 | 0.0 | 5.2 | 0.00 | 0.00 | 0.00 | 73 | 1014.7 |
| 20260505013516 | 48 | 80 | 0.9 | 9.6 | 0.00 | 0.00 | 0.00 | 68 | 1015.0 |
| 20260505013059 | 49 | 12 | 2.6 | 9.6 | 0.00 | 0.00 | 0.00 | 61 | 1015.2 |
| 20260505012519 | 50 | 309 | 0.9 | 4.3 | 0.00 | 0.00 | 0.00 | 56 | 1014.6 |
| 20260505012018 | 50 | 59 | 0.9 | 4.3 | 0.00 | 0.00 | 0.00 | 54 | 1014.5 |
| 20260505011601 | 50 | 345 | 1.7 | 7.0 | 0.00 | 0.00 | 0.00 | 53 | 1014.5 |
| 20260505011017 | 50 | 310 | 0.9 | 8.7 | 0.00 | 0.00 | 0.00 | 54 | 1014.6 |
| 20260505010518 | 50 | 12 | 3.5 | 8.7 | 0.00 | 0.00 | 0.00 | 53 | 1014.5 |
| 20260505010115 | 51 | 18 | 1.7 | 9.6 | 0.00 | 0.00 | 0.00 | 53 | 1014.1 |
| 20260505005517 | 51 | 360 | 1.7 | 10.4 | 0.00 | 0.00 | 0.00 | 52 | 1013.9 |
| 20260505005017 | 51 | 344 | 2.6 | 10.4 | 0.00 | 0.00 | 0.00 | 51 | 1013.8 |
| 20260505004601 | 51 | 24 | 1.7 | 8.7 | 0.00 | 0.00 | 0.00 | 49 | 1013.7 |
| 20260505004016 | 52 | 298 | 3.5 | 7.8 | 0.00 | 0.00 | 0.00 | 49 | 1013.8 |
| 20260505003516 | 52 | 28 | 1.7 | 9.6 | 0.00 | 0.00 | 0.00 | 48 | 1013.2 |
| 20260505003106 | 52 | 355 | 4.3 | 9.6 | 0.00 | 0.00 | 0.00 | 47 | 1013.2 |
| 20260505002517 | 53 | 39 | 2.6 | 8.7 | 0.00 | 0.00 | 0.00 | 46 | 1013.3 |
| 20260505002017 | 53 | 301 | 1.7 | 11.3 | 0.00 | 0.00 | 0.00 | 46 | 1013.2 |
| 20260505001016 | 54 | 80 | 1.7 | 7.0 | 0.00 | 0.00 | 0.00 | 43 | 1013.3 |
| 20260505000521 | 55 | 53 | 1.7 | 7.0 | 0.00 | 0.00 | 0.00 | 43 | 1013.2 |
| 20260505000113 | 55 | 5 | 1.7 | 10.4 | 0.00 | 0.00 | 0.00 | 42 | 1013.2 |
| 20260504235517 | 56 | 65 | 3.5 | 10.4 | 0.00 | 0.00 | 0.00 | 41 | 1013.2 |
| 20260504235017 | 56 | 12 | 1.7 | 12.2 | 0.00 | 0.00 | 0.00 | 41 | 1013.2 |
| 20260504234608 | 57 | 315 | 3.5 | 11.3 | 0.00 | 0.00 | 0.00 | 39 | 1013.0 |
| 20260504234016 | 57 | 337 | 3.5 | 10.4 | 0.00 | 0.00 | 0.00 | 40 | 1013.1 |
| 20260504233517 | 57 | 296 | 1.7 | 9.6 | 0.00 | 0.00 | 0.00 | 40 | 1013.2 |
| 20260504233112 | 57 | 68 | 3.5 | 10.4 | 0.00 | 0.00 | 0.00 | 38 | 1013.0 |
| 20260504232519 | 58 | 26 | 1.7 | 8.7 | 0.00 | 0.00 | 0.00 | 39 | 1013.2 |
| 20260504232018 | 58 | 337 | 1.7 | 9.6 | 0.00 | 0.00 | 0.00 | 41 | 1013.1 |
| 20260504231620 | 58 | 344 | 4.3 | 9.6 | 0.00 | 0.00 | 0.00 | 39 | 1013.2 |
| 20260504231018 | 58 | 309 | 1.7 | 7.8 | 0.00 | 0.00 | 0.00 | 40 | 1013.3 |
| 20260504230517 | 57 | 26 | 1.7 | 6.1 | 0.00 | 0.00 | 0.00 | 42 | 1013.4 |
| 20260504230115 | 56 | 57 | 2.6 | 7.8 | 0.00 | 0.00 | 0.00 | 41 | 1013.3 |
| 20260504225521 | 55 | 11 | 2.6 | 7.8 | 0.00 | 0.00 | 0.00 | 43 | 1013.2 |
| 20260504225017 | 55 | 336 | 0.9 | 8.7 | 0.00 | 0.00 | 0.00 | 43 | 1013.2 |
| 20260504224613 | 55 | 346 | 0.9 | 14.8 | 0.00 | 0.00 | 0.00 | 41 | 1013.4 |
| 20260504224018 | 57 | 65 | 3.5 | 14.8 | 0.00 | 0.00 | 0.00 | 42 | 1013.9 |
| 20260504223518 | 59 | 5 | 1.7 | 5.2 | 0.00 | 0.00 | 0.00 | 34 | 1013.1 |
| 20260504223109 | 59 | 297 | 1.7 | 3.5 | 0.00 | 0.00 | 0.00 | 34 | 1013.0 |
| 20260504222517 | 59 | 215 | 0.9 | 3.5 | 0.00 | 0.00 | 0.00 | 34 | 1013.0 |
| 20260504222018 | 59 | 205 | 0.0 | 4.3 | 0.00 | 0.00 | 0.00 | 32 | 1013.0 |
| 20260504221622 | 59 | 207 | 0.9 | 7.0 | 0.00 | 0.00 | 0.00 | 32 | 1012.7 |
| 20260504221018 | 60 | 127 | 2.6 | 7.8 | 0.00 | 0.00 | 0.00 | 33 | 1012.7 |
| 20260504220517 | 60 | 137 | 2.6 | 8.7 | 0.00 | 0.00 | 0.00 | 32 | 1012.7 |
| 20260504220124 | 61 | 132 | 3.5 | 7.0 | 0.00 | 0.00 | 0.00 | 32 | 1012.7 |
| 20260504215519 | 61 | 185 | 2.6 | 9.6 | 0.00 | 0.00 | 0.00 | 33 | 1012.5 |
| 20260504215019 | 61 | 261 | 1.7 | 8.7 | 0.00 | 0.00 | 0.00 | 32 | 1012.5 |
| 20260504214717 | 61 | 210 | 2.6 | 8.7 | 0.00 | 0.00 | 0.00 | 33 | 1012.5 |
| 20260504214215 | 61 | 80 | 1.7 | 4.3 | 0.00 | 0.00 | 0.00 | 31 | 1012.5 |
| 20260504213711 | 61 | 225 | 2.6 | 5.2 | 0.00 | 0.00 | 0.00 | 30 | 1012.7 |
| 20260504213040 | 61 | 84 | 0.0 | 3.5 | 0.00 | 0.00 | 0.00 | 28 | 1012.5 |
| 20260504212510 | 61 | 74 | 1.7 | 6.1 | 0.00 | 0.00 | 0.00 | 28 | 1012.5 |
| 20260504212013 | 61 | 79 | 1.7 | 6.1 | 0.00 | 0.00 | 0.00 | 29 | 1012.7 |
| 20260504211538 | 61 | 58 | 0.9 | 7.0 | 0.00 | 0.00 | 0.00 | 28 | 1012.7 |
| 20260504211013 | 62 | 355 | 0.9 | 7.8 | 0.00 | 0.00 | 0.00 | 27 | 1012.8 |
| 20260504210514 | 62 | 69 | 2.6 | 9.6 | 0.00 | 0.00 | 0.00 | 28 | 1012.7 |
| 20260504210037 | 62 | 307 | 2.6 | 9.6 | 0.00 | 0.00 | 0.00 | 27 | 1012.4 |
| 20260504205514 | 63 | 75 | 2.6 | 7.8 | 0.00 | 0.00 | 0.00 | 28 | 1012.5 |
| 20260504205013 | 63 | 329 | 2.6 | 7.8 | 0.00 | 0.00 | 0.00 | 28 | 1012.5 |
| 20260504204535 | 63 | 15 | 0.9 | 14.8 | 0.00 | 0.00 | 0.00 | 28 | 1012.7 |
| 20260504204011 | 64 | 344 | 1.7 | 10.4 | 0.00 | 0.00 | 0.00 | 29 | 1013.0 |
| 20260504203512 | 65 | 288 | 2.6 | 7.0 | 0.00 | 0.00 | 0.00 | 27 | 1013.0 |
| 20260504203035 | 65 | 229 | 0.9 | 5.2 | 0.00 | 0.00 | 0.00 | 26 | 1013.0 |
| 20260504202513 | 66 | 241 | 1.7 | 6.1 | 0.00 | 0.00 | 0.00 | 24 | 1013.0 |
| 20260504202012 | 65 | 221 | 1.7 | 6.1 | 0.00 | 0.00 | 0.00 | 27 | 1013.0 |
| 20260504201537 | 64 | 177 | 1.7 | 8.7 | 0.00 | 0.00 | 0.00 | 27 | 1013.0 |
| 20260504201013 | 63 | 136 | 2.6 | 8.7 | 0.00 | 0.00 | 0.00 | 28 | 1013.2 |
| 20260504200513 | 63 | 211 | 2.6 | 8.7 | 0.00 | 0.00 | 0.00 | 30 | 1013.2 |
| 20260504200041 | 63 | 227 | 1.7 | 7.0 | 0.00 | 0.00 | 0.00 | 27 | 1013.1 |
| 20260504195513 | 62 | 193 | 0.9 | 3.5 | 0.00 | 0.00 | 0.00 | 27 | 1013.2 |
| 20260504195014 | 62 | 329 | 0.9 | 2.6 | 0.00 | 0.00 | 0.00 | 24 | 1013.2 |
| 20260504194541 | 62 | 116 | 0.0 | 5.2 | 0.00 | 0.00 | 0.00 | 25 | 1013.1 |
| 20260504194014 | 62 | 117 | 1.7 | 5.2 | 0.00 | 0.00 | 0.00 | 24 | 1013.3 |
| 20260504193512 | 62 | 123 | 0.0 | 3.5 | 0.00 | 0.00 | 0.00 | 24 | 1013.4 |
| 20260504193035 | 62 | 103 | 0.0 | 2.6 | 0.00 | 0.00 | 0.00 | 25 | 1013.5 |
| 20260504192513 | 62 | 109 | 0.0 | 2.6 | 0.00 | 0.00 | 0.00 | 26 | 1013.4 |
| 20260504192011 | 62 | 109 | 0.9 | 4.3 | 0.00 | 0.00 | 0.00 | 25 | 1013.3 |
| 20260504191549 | 63 | 321 | 1.7 | 7.0 | 0.00 | 0.00 | 0.00 | 25 | 1013.3 |
| 20260504191013 | 63 | 67 | 1.7 | 7.0 | 0.00 | 0.00 | 0.00 | 25 | 1013.4 |
| 20260504190511 | 64 | 288 | 1.7 | 4.3 | 0.00 | 0.00 | 0.00 | 24 | 1013.5 |
| 20260504190033 | 64 | 137 | 0.9 | 3.5 | 0.00 | 0.00 | 0.00 | 23 | 1013.5 |
| 20260504185513 | 65 | 126 | 0.9 | 3.5 | 0.00 | 0.00 | 0.00 | 22 | 1013.7 |
| 20260504185012 | 66 | 86 | 0.9 | 7.8 | 0.00 | 0.00 | 0.00 | 20 | 1013.7 |
| 20260504184548 | 67 | 79 | 2.6 | 9.6 | 0.00 | 0.00 | 0.00 | 22 | 1013.6 |
| 20260504184012 | 66 | 218 | 2.6 | 7.0 | 0.00 | 0.00 | 0.00 | 24 | 1013.7 |
| 20260504183512 | 65 | 148 | 2.6 | 7.0 | 0.00 | 0.00 | 0.00 | 22 | 1013.7 |
| 20260504183041 | 63 | 113 | 1.7 | 5.2 | 0.00 | 0.00 | 0.00 | 23 | 1014.1 |
| 20260504182511 | 62 | 157 | 1.7 | 5.2 | 0.00 | 0.00 | 0.00 | 24 | 1014.1 |
| 20260504182013 | 62 | 175 | 2.6 | 7.0 | 0.00 | 0.00 | 0.00 | 25 | 1014.2 |
| 20260504181544 | 62 | 265 | 2.6 | 8.7 | 0.00 | 0.00 | 0.00 | 25 | 1014.2 |
| 20260504181013 | 62 | 253 | 2.6 | 8.7 | 0.00 | 0.00 | 0.00 | 25 | 1014.2 |
| 20260504180515 | 63 | 217 | 0.0 | 7.0 | 0.00 | 0.00 | 0.00 | 23 | 1014.2 |
| 20260504180034 | 62 | 286 | 1.7 | 7.0 | 0.00 | 0.00 | 0.00 | 28 | 1014.2 |
| 20260504175511 | 62 | 271 | 1.7 | 7.8 | 0.00 | 0.00 | 0.00 | 26 | 1014.2 |
| 20260504175014 | 63 | 238 | 2.6 | 7.0 | 0.00 | 0.00 | 0.00 | 25 | 1014.3 |
| 20260504174530 | 63 | 323 | 0.9 | 4.3 | 0.00 | 0.00 | 0.00 | 25 | 1014.5 |
| 20260504174014 | 63 | 227 | 1.7 | 7.8 | 0.00 | 0.00 | 0.00 | 29 | 1014.4 |
| 20260504173512 | 63 | 284 | 0.9 | 7.8 | 0.00 | 0.00 | 0.00 | 28 | 1014.7 |
| 20260504173037 | 64 | 279 | 1.7 | 10.4 | 0.00 | 0.00 | 0.00 | 26 | 1015.0 |
| 20260504172511 | 64 | 205 | 1.7 | 10.4 | 0.00 | 0.00 | 0.00 | 29 | 1015.1 |
| 20260504172012 | 64 | 294 | 4.3 | 10.4 | 0.00 | 0.00 | 0.00 | 28 | 1015.1 |
| 20260504171535 | 63 | 223 | 2.6 | 7.8 | 0.00 | 0.00 | 0.00 | 33 | 1015.2 |
| 20260504171018 | 62 | 319 | 3.5 | 13.9 | 0.00 | 0.00 | 0.00 | 32 | 1015.2 |
| 20260504170515 | 62 | 284 | 3.5 | 8.7 | 0.00 | 0.00 | 0.00 | 33 | 1015.2 |
| 20260504151014 | 56 | 206 | 3.5 | 16.5 | 0.00 | 0.00 | 0.00 | 36 | 1015.9 |
| 20260504150516 | 57 | 5 | 6.1 | 16.5 | 0.00 | 0.00 | 0.00 | 34 | 1015.8 |